Flag for U.S.A. Weather past 2 weeks in Rancho Cucamonga, California, U.S.A.

Now
55 °F

Passing clouds.


Feels Like: 53 °F
Forecast: 52 / 65 °F
Wind: 7 mph from West

Location: Ontario International Airport

Current Time: May 6, 2015 at 2:30:16 AM

Latest Report: May 6, 2015 at 1:53 AM


Visibility: 10 mi

Pressure: 29.91 "Hg

Humidity: 74%

Dew point: 47 °F

Location of Rancho CucamongaLocation

Historic Weather in Rancho Cucamonga — Graph

°F

Rancho Cucamonga temperature yesterday

Maximum temperature yesterday: 69 °F (at 3:53 PM)
Minimum temperature yesterday: 54 °F (at 1:53 AM)
Average temperature yesterday: 60 °F

Past Weeks' High & Low Weather Summary

 TemperatureHumidityPressure
High94 °F (Apr 29, 2:53 PM)97% (Apr 25, 6:04 PM)29.99 "Hg (Apr 25, 6:04 PM)
Low50 °F (Apr 26, 6:00 AM)9% (Apr 27, 11:53 AM)29.75 "Hg (May 2, 4:53 PM)
Average67 °F50%29.88 "Hg
* Reported Apr 21 12:53 AM — May 6 12:53 AM, Rancho Cucamonga, Weather by CustomWeather, © 2015

Note: Actual official high and low records may vary slightly from our data, if they occured in-between our weather recording intervals... More about our weather records

Advertising

Rancho Cucamonga weather history for previous 24 hours

 ConditionsComfort  
Time TempWeatherWind HumidityBarometerVisibility
12:53 AM
Wed, May 6
54 °FPassing clouds.7 mph77%29.93 "Hg10 mi
11:53 PM
Tue, May 5
56 °FPassing clouds.7 mph67%29.94 "Hg10 mi
10:53 PM56 °FPassing clouds.7 mph72%29.94 "Hg10 mi
9:53 PM57 °FPassing clouds.8 mph69%29.93 "Hg10 mi
8:53 PM59 °FPassing clouds.9 mph64%29.92 "Hg10 mi
7:53 PM60 °FPartly sunny.9 mph62%29.90 "Hg10 mi
6:53 PM62 °FPartly sunny.12 mph58%29.89 "Hg10 mi
5:53 PM63 °FPartly sunny.12 mph56%29.89 "Hg10 mi
4:53 PM67 °FBroken clouds.16 mph47%29.90 "Hg10 mi
3:53 PM69 °FBroken clouds.14 mph44%29.90 "Hg10 mi
2:53 PM68 °FSunny.8 mph44%29.91 "Hg10 mi
1:53 PM68 °FPartly sunny.6 mph44%29.93 "Hg10 mi
12:53 PM66 °FOvercast.8 mph49%29.95 "Hg10 mi
11:53 AM65 °FOvercast.6 mph51%29.96 "Hg10 mi
10:53 AM62 °FPartly sunny.3 mph58%29.97 "Hg10 mi
9:53 AM61 °FBroken clouds.3 mph62%29.97 "Hg10 mi
8:53 AM59 °FMostly cloudy.6 mph69%29.98 "Hg10 mi
7:53 AM57 °FMostly cloudy.No wind74%29.98 "Hg10 mi
6:53 AM56 °FOvercast.3 mph77%29.98 "Hg10 mi
5:53 AM56 °FMostly cloudy.5 mph75%29.96 "Hg10 mi
4:53 AM55 °FMostly cloudy.5 mph77%29.95 "Hg10 mi
3:53 AM55 °FOvercast.7 mph77%29.96 "Hg10 mi
3:00 AM55 °FOvercast.7 mph80%29.99 "Hg10 mi
Weather by CustomWeather, © 2015

See weather overviewHow to use our weather pages